VK4VS Weather Reports


time (UTC)temp
F
wind
direction
speed
knots
gust
knots
rain 1hr
in
rain 24hr
in
rain mn
in
humidity
%
barometer
mb
20260510043004 64 106 4.3 8.7 0.00 0.00 0.00 68 1024.7
20260510040004 64 105 4.3 7.8 0.00 0.00 0.00 67 1024.6
20260510033003 64 118 3.5 7.0 0.00 0.00 0.00 63 1024.7
20260510030004 64 137 5.2 11.3 0.00 0.00 0.00 67 1024.7
20260510023003 65 97 4.3 9.6 0.00 0.00 0.00 64 1025.2
20260510020004 64 110 4.3 8.7 0.00 0.00 0.00 63 1025.3
20260510013004 63 136 4.3 10.4 0.00 0.00 0.00 67 1025.6
20260510010004 62 102 4.3 9.6 0.00 0.00 0.00 69 1026.2
20260510003004 62 133 5.2 9.6 0.00 0.00 0.00 73 1026.5
20260510000004 60 129 5.2 8.7 0.00 0.00 0.00 76 1027.1
20260509233004 59 107 4.3 8.7 0.00 0.00 0.00 78 1026.8
20260509230004 56 128 5.2 10.4 0.00 0.00 0.00 83 1026.1
20260509223004 54 142 7.8 12.2 0.00 0.00 0.00 87 1025.8
20260509220004 54 162 5.2 9.6 0.00 0.00 0.00 86 1025.6
20260509213004 50 149 3.5 7.8 0.00 0.00 0.00 93 1025.4
20260509210004 46 142 2.6 3.5 0.00 0.00 0.00 95 1024.9
20260509203004 46 132 2.6 3.5 0.00 0.00 0.00 95 1024.4
20260509200004 45 122 1.7 2.6 0.00 0.00 0.00 93 1024.2
20260509193004 46 124 1.7 2.6 0.00 0.00 0.00 92 1023.8
20260509190004 47 123 1.7 2.6 0.00 0.00 0.00 93 1023.8
20260509183003 47 122 2.6 3.5 0.00 0.00 0.00 92 1023.5
20260509180004 47 145 2.6 3.5 0.00 0.00 0.00 92 1023.4
20260509173004 47 118 1.7 3.5 0.00 0.00 0.00 92 1023.2
20260509170004 48 116 1.7 3.5 0.00 0.00 0.00 90 1023.1
20260509163004 49 149 4.3 7.8 0.00 0.00 0.00 86 1023.2
20260509160003 50 160 4.3 7.8 0.00 0.00 0.00 84 1023.3
20260509153004 49 147 3.5 7.0 0.00 0.00 0.00 84 1023.3
20260509150004 49 126 2.6 5.2 0.00 0.00 0.00 85 1023.6
20260509143004 49 107 1.7 2.6 0.00 0.00 0.00 84 1023.6
20260509140005 49 121 2.6 3.5 0.00 0.00 0.00 85 1023.6
20260509133004 49 118 2.6 3.5 0.00 0.00 0.00 84 1023.6
20260509130004 49 98 1.7 3.5 0.00 0.00 0.00 83 1023.7
20260509123004 49 91 0.9 3.5 0.00 0.00 0.00 82 1023.9
20260509120003 50 94 1.7 3.5 0.00 0.00 0.00 81 1023.8
20260509113003 50 82 1.7 3.5 0.00 0.00 0.00 80 1023.7
20260509110004 50 120 2.6 5.2 0.00 0.00 0.00 78 1023.6
20260509103003 51 154 2.6 3.5 0.00 0.00 0.00 77 1023.6
20260509100004 52 146 3.5 7.0 0.00 0.00 0.00 75 1023.6
20260509093003 52 114 2.6 5.2 0.00 0.00 0.00 74 1023.3
20260509090005 52 140 3.5 6.1 0.00 0.00 0.00 71 1022.8
20260509083004 53 132 2.6 6.1 0.00 0.00 0.00 68 1022.7
20260509080004 54 86 1.7 4.3 0.00 0.00 0.00 65 1022.3
20260509073004 55 116 1.7 5.2 0.00 0.00 0.00 63 1021.9
20260509070004 58 150 3.5 7.0 0.00 0.00 0.00 57 1021.5
20260509063004 60 138 3.5 8.7 0.00 0.00 0.00 51 1021.3
20260509060004 62 134 3.5 7.8 0.00 0.00 0.00 48 1021.0
20260509053004 63 120 2.6 7.0 0.00 0.00 0.00 46 1020.9
20260509050004 63 114 3.5 7.0 0.00 0.00 0.00 45 1020.9